Location: *
(35.1500°N, 76.6700°W)
Time: 22:31:20
(UTC+00:00)

Cosmos 1606 Rocket - Pass Details

Date: 13 October 2019
Orbit: 602 x 633 km, 82.5° (Epoch: 18 November)

Event Time Altitude Azimuth Distance (km) Brightness Sun altitude
Rises 22:55:42 0° 171° (S) 2,896 7.0 -5.1°
Reaches altitude 10° 22:58:00 10° 165° (SSE) 1,989 6.1 -5.6°
Maximum altitude 23:02:12 46° 93° (E) 842 3.8 -6.5°
Drops below altitude 10° 23:06:24 10° 20° (NNE) 1,985 5.9 -7.3°
Sets 23:08:41 0° 14° (NNE) 2,889 6.8 -7.8°
